[ hide orbit diagram ]
For accurate long-term ephemerides, please instead use our Horizons system.This orbit viewer was implemented using two-body methods, and hence should not be used for determining accurate long-term trajectories (over several years or decades) or planetary encounter circumstances.
Orbital Elements at Epoch 2456413.5 (2013-May-01.0) TDB
Reference: JPL 56 (heliocentric ecliptic J2000)
Element | Value | Uncertainty (1-sigma) | Units |
e | 1.000005095690719 | 1.6092e-08 | |
a | -2446.520761814393 | 7.7289 | au |
q | .0124667131396643 | 1.0063e-07 | au |
i | 62.16289397901024 | 0.00032658 | deg |
node | 295.6865418045648 | 5.5497e-05 | deg |
peri | 345.5411989420559 | 4.3516e-05 | deg |
M | -.001724780901920006 | 8.1729e-06 | deg |
tp | 2456625.264530286448 (2013-Nov-28.76453029) | 7.9908e-05 | TDB |
period | n/a n/a | n/a n/a | d yr |
n | 8.144805457207318E-6 | 3.8596e-08 | deg/d |
Q | n/a | n/a | au |
|
Additional Model Parameters
Parameter | Value | Uncertainty (1-sigma) |
A1 [EST] | 8.538925085916436E-8 | 2.168E-9 |
A2 [EST] | 5.750838889587425E-9 | 6.145E-10 |
|
| | Orbit Determination Parameters
Additional Information
|
[ show covariance matrix ]
[ show close-approach data ]
|